(431890) = 2008 SB265

Discovered at Kitt Peak on 2008-09-26 by Spacewatch.

Orbit

Orbit type: Main Belt

Note: WebGL enabled browser required.

epoch2024-03-31.0
epoch JD2460400.5
perihelion date2022-09-25.41142
perihelion JD2459847.91142
argument of perihelion (°)15.54135
ascending node (°)26.75443
inclination (°)4.77658
eccentricity0.0673112
perihelion distance (AU)2.5795515
Tisserand w.r.t. Jupiter3.3
ΔV w.r.t. Earth (km/sec)10.1
semimajor axis (AU)2.7657151
mean anomaly (°)118.41169
mean daily motion (°/day)0.21428550
aphelion distance (AU)2.952
period (years)4.6
P-vector [x]0.74009952
P-vector [y]0.60778981
P-vector [z]0.28782676
Q-vector [x]-0.67145180
Q-vector [y]0.64399038
Q-vector [z]0.36664542
absolute magnitude17.41
phase slope0.15
uncertainty0
referenceMPEC 2024-E123
observations used146
oppositions13
arc length (days)10751
first opposition used1994
last opposition used2024
residual rms (arc-secs)0.78
perturbers coarse indicatorM-v
perturbers precise indicator003Ek
first observation date used1994-09-30.0
last observation date used2024-03-07.0
computer nameMPCLINUX
Minimum Orbit Intersection Distances (in AU)
for orbit epoch: 2460400.5, reference: E2024-FB1
Mercury2.25449
Venus1.85771
Earth1.58813
Mars1.06719
Jupiter2.32303
Saturn6.39753
Uranus15.5653
Neptune27.2406

Observations

149 total observations over interval: 1994 09 30.23861 – 2024 03 07.306692
These data are available for download (format description).

